Tracking 35331 objects as of 16-Sep-2026
HD Live streaming from Space Station
objects crossing your sky now

TITAN 34B AGENA D R/B

Track TITAN 34B AGENA D R/B now!


NORAD ID: 14238
Int'l Code: 1983-078B
Launch date: July 31, 1983
Source: United States (US)
Launch site: AIR FORCE WESTERN TEST RANGE (AFWTR)

Note: This is a ROCKET BODY
Your satellite tracking list
Your tracking list is empty




NASA's NSSDC Master Catalog

Two Line Element Set (TLE):
1 14238U 83078B   26254.48338081  .00000079  00000-0  68441-3 0  9990
2 14238  63.4908  70.2026 6839180 274.3449  16.7177  2.65656144 10701
Source of the keplerian elements: AFSPC